Stations météo

réclame
Mon MeteoGroup
De Kooy, Pays-Bas (6235): Température de l'air & dewpoint: 12.10.2019 21:00:00 - 18.10.2019 21:00:00 (CEST)De Kooy, Pays-Bas (6235): Température de l'air 5cm: 12.10.2019 21:00:00 - 18.10.2019 21:00:00 (CEST)De Kooy, Pays-Bas (6235): Vitesse du vent & gusts: 12.10.2019 21:00:00 - 18.10.2019 21:00:00 (CEST)De Kooy, Pays-Bas (6235): Direction du vent: 12.10.2019 21:00:00 - 18.10.2019 21:00:00 (CEST)De Kooy, Pays-Bas (6235): reduced air pressure: 12.10.2019 21:00:00 - 18.10.2019 21:00:00 (CEST)De Kooy, Pays-Bas (6235): visibility: 12.10.2019 21:00:00 - 18.10.2019 21:00:00 (CEST)De Kooy, Pays-Bas (6235): Quantités de précipitations: 12.10.2019 21:00:00 - 18.10.2019 21:00:00 (CEST)
Date & Time tt [°C] td [°C] tt 5cm [°C] ff [km/h] ff [knt] fx [km/h] fx [knt] dd ppp [hPa] vv [km] rr [mm]
18.10.2019 21:00:00 13,0 10,0 12,5 44 24 - - SSW 1001,4 10 -
18.10.2019 20:00:00 12,9 10,0 12,2 42 23 68 37 SSW 1001,8 10 0,0
18.10.2019 19:00:00 12,9 10,0 12,2 41 22 68 37 SSW 1001,4 10 2,0
18.10.2019 18:00:00 12,6 9,9 12,0 31 17 72 39 WSW 1001,0 10 2,0
18.10.2019 17:00:00 13,7 9,0 12,9 42 23 65 35 SW 1000,7 10 0,1
18.10.2019 16:00:00 13,8 9,0 13,4 42 23 68 37 WSW 1000,2 10 0,0
18.10.2019 15:00:00 12,7 10,4 12,5 42 23 68 37 WSW 999,2 10 1,3
18.10.2019 14:00:00 11,8 10,3 11,4 39 21 65 35 SSW 998,3 10 0,5
18.10.2019 13:00:00 12,1 10,9 12,0 29 16 43 23 SSW 998,2 5 0,6
18.10.2019 12:00:00 9,7 9,2 9,6 31 17 54 29 S 999,3 7 4,0
18.10.2019 11:00:00 13,7 11,8 13,3 28 15 43 23 S 999,0 10 0,0
18.10.2019 10:00:00 13,0 11,6 12,7 24 13 36 19 SSE 1000,0 10 0,0
18.10.2019 09:00:00 12,3 11,3 11,5 21 11 36 19 S 1001,1 10 0,0
18.10.2019 08:00:00 11,8 11,0 11,0 16 9 29 16 SSE 1001,5 9 0,0
18.10.2019 07:00:00 12,2 11,4 11,8 22 12 32 18 S 1002,1 10 0,0
18.10.2019 06:00:00 12,0 11,2 11,5 18 10 29 16 S 1003,0 7 0,0
18.10.2019 05:00:00 12,1 11,5 11,5 18 10 29 16 S 1003,7 6 0,0
18.10.2019 04:00:00 11,6 11,0 11,1 18 10 29 16 S 1004,1 5 0,0
18.10.2019 03:00:00 11,5 10,7 11,0 18 10 29 16 SSE 1004,9 8 0,0
18.10.2019 02:00:00 11,5 10,6 11,1 15 8 25 14 SSE 1005,5 9 0,0
18.10.2019 01:00:00 11,3 10,4 10,8 15 8 29 16 SSE 1006,0 10 0,0
18.10.2019 00:00:00 11,1 10,1 10,5 16 9 25 14 SSE 1006,4 10 0,0
17.10.2019 23:00:00 10,8 8,9 9,9 13 7 22 12 SSE 1007,1 10 0,0
17.10.2019 22:00:00 10,8 8,2 9,4 13 7 18 10 SSE 1007,2 10 0,0
17.10.2019 21:00:00 10,9 8,6 9,3 9 5 22 12 SSE 1007,5 10 0,0
17.10.2019 20:00:00 11,1 8,7 10,3 11 6 25 14 S 1007,8 10 0,0
17.10.2019 19:00:00 12,8 9,6 11,9 22 12 29 16 SSW 1007,8 10 0,0
17.10.2019 18:00:00 14,2 10,7 13,6 15 8 29 16 S 1007,7 10 0,0
17.10.2019 17:00:00 14,4 9,6 13,8 24 13 40 21 SSW 1007,7 10 0,0
17.10.2019 16:00:00 14,8 10,1 14,3 21 11 43 23 SSW 1008,2 10 0,0
17.10.2019 15:00:00 15,1 10,8 14,8 28 15 40 21 SSW 1008,4 10 0,0
17.10.2019 14:00:00 14,6 11,5 14,7 26 14 36 19 SSW 1008,5 10 0,0
17.10.2019 13:00:00 14,4 11,0 14,3 21 11 29 16 S 1008,8 10 0,0
17.10.2019 12:00:00 14,1 11,2 14,2 16 9 25 14 SSW 1008,8 10 0,0
17.10.2019 11:00:00 14,2 8,3 13,9 15 8 25 14 SW 1008,7 10 0,0
17.10.2019 10:00:00 13,4 9,4 13,2 8 4 14 8 SSW 1008,4 10 0,0
17.10.2019 09:00:00 10,2 8,2 8,0 5 3 11 6 SSW 1007,8 10 0,0
17.10.2019 08:00:00 12,0 8,2 10,6 9 5 14 8 W 1007,1 10 0,0
17.10.2019 07:00:00 12,7 9,4 11,9 8 4 14 8 WNW 1006,4 10 0,0
17.10.2019 06:00:00 12,8 10,3 12,0 9 5 18 10 WNW 1006,1 10 0,0
17.10.2019 05:00:00 12,0 11,7 11,9 9 5 11 6 SSW 1005,8 10 0,2
17.10.2019 04:00:00 12,3 11,1 12,0 5 3 18 10 SW 1005,5 10 0,1
17.10.2019 03:00:00 12,6 11,1 12,2 9 5 18 10 W 1005,2 10 0,1
17.10.2019 02:00:00 12,8 11,8 12,5 9 5 22 12 W 1004,9 6 0,9
17.10.2019 01:00:00 13,4 13,1 13,2 11 6 18 10 SW 1004,6 6 0,5
17.10.2019 00:00:00 13,2 12,8 13,0 15 8 25 14 WSW 1004,4 6 0,5
16.10.2019 23:00:00 13,5 12,6 13,0 16 9 32 18 WSW 1004,5 7 0,7
16.10.2019 22:00:00 14,2 14,0 14,1 21 11 36 19 SW 1004,0 2,6 0,5
16.10.2019 21:00:00 14,6 13,9 14,4 26 14 40 21 SSW 1003,8 10 0,0
16.10.2019 20:00:00 14,8 14,3 14,6 29 16 43 23 SSW 1003,9 10 0,1
16.10.2019 19:00:00 14,3 14,0 14,0 24 13 29 16 SSW 1003,8 3,1 1,8
16.10.2019 18:00:00 13,8 13,5 13,7 22 12 32 18 SSE 1003,6 4,7 0,6
16.10.2019 17:00:00 13,5 13,2 13,4 18 10 29 16 SSE 1004,0 8 2,3
16.10.2019 16:00:00 13,3 12,7 13,4 26 14 36 19 S 1004,5 3,5 0,0
16.10.2019 15:00:00 13,9 11,9 13,9 22 12 40 21 S 1004,7 10 0,0
16.10.2019 14:00:00 14,6 11,9 14,2 29 16 40 21 S 1005,2 10 0,0
16.10.2019 13:00:00 14,4 11,5 14,4 28 15 40 21 S 1005,7 10 0,0
16.10.2019 12:00:00 14,4 11,2 15,1 24 13 36 19 S 1006,0 10 0,0
16.10.2019 11:00:00 13,4 11,2 13,7 18 10 29 16 S 1006,3 10 0,0
16.10.2019 10:00:00 12,3 11,2 12,1 18 10 29 16 S 1006,7 6 0,0
16.10.2019 09:00:00 11,4 10,8 10,6 18 10 29 16 S 1006,7 7 0,0
16.10.2019 08:00:00 10,7 10,3 10,1 16 9 25 14 S 1006,3 7 0,0
16.10.2019 07:00:00 11,2 10,6 10,6 15 8 25 14 S 1006,3 7 0,0
16.10.2019 06:00:00 12,3 11,5 12,0 16 9 25 14 S 1006,4 8 0,0
16.10.2019 05:00:00 12,8 12,1 12,2 13 7 22 12 S 1006,3 10 0,0
16.10.2019 04:00:00 12,9 12,4 12,3 15 8 22 12 S 1006,5 9 0,0
16.10.2019 03:00:00 13,0 12,5 12,6 13 7 18 10 S 1006,6 10 0,0
16.10.2019 02:00:00 12,7 12,5 12,1 9 5 11 6 S 1006,6 10 0,0
16.10.2019 01:00:00 12,1 11,8 11,4 9 5 14 8 S 1006,6 10 0,0
16.10.2019 00:00:00 11,7 11,4 10,7 5 3 11 6 S 1006,4 10 0,0
15.10.2019 23:00:00 12,8 12,3 12,5 8 4 32 18 WSW 1006,6 10 0,6
15.10.2019 22:00:00 13,3 12,6 13,1 18 10 29 16 SW 1006,2 6 0,1
15.10.2019 21:00:00 14,2 13,0 13,6 11 6 22 12 S 1005,7 10 0,0
15.10.2019 20:00:00 14,0 12,9 13,6 15 8 22 12 SSW 1005,7 10 0,0
15.10.2019 19:00:00 14,3 12,9 13,9 15 8 25 14 SSW 1005,3 10 0,0
15.10.2019 18:00:00 14,5 13,2 14,2 21 11 29 16 SSW 1004,9 10 0,0
15.10.2019 17:00:00 14,8 13,3 14,6 21 11 32 18 SSW 1005,0 10 0,0
15.10.2019 16:00:00 15,0 13,9 14,8 18 10 29 16 SW 1005,0 10 0,1
15.10.2019 15:00:00 15,4 13,8 15,2 18 10 32 18 SSW 1004,7 10 0,0
15.10.2019 14:00:00 15,7 14,1 15,5 24 13 47 25 SSW 1004,7 10 -
15.10.2019 13:00:00 15,9 14,2 - 26 14 40 21 SSW 1004,8 10 -
15.10.2019 12:00:00 16,0 14,1 16,1 28 15 40 21 SSW 1004,3 10 0,0
15.10.2019 11:00:00 15,5 13,8 15,5 26 14 43 23 SSW 1004,4 10 0,0
15.10.2019 10:00:00 15,4 13,8 15,4 26 14 40 21 SSW 1003,9 10 0,0
15.10.2019 09:00:00 14,9 13,5 14,5 26 14 36 19 SSW 1003,5 10 0,0
15.10.2019 08:00:00 14,7 13,2 14,2 22 12 40 21 SSW 1003,2 10 0,0
15.10.2019 07:00:00 14,9 13,2 14,2 26 14 36 19 SSW 1003,2 10 0,0
15.10.2019 06:00:00 14,9 13,3 14,2 24 13 36 19 SSW 1003,4 10 0,0
15.10.2019 05:00:00 15,4 13,6 14,9 29 16 43 23 SSW 1003,1 10 0,0
15.10.2019 04:00:00 16,0 13,7 15,1 21 11 36 19 SSW 1002,9 10 0,0
15.10.2019 03:00:00 15,4 14,0 14,7 18 10 29 16 S 1003,2 10 0,0
15.10.2019 02:00:00 15,4 14,2 14,5 16 9 25 14 SE 1002,9 10 0,0
15.10.2019 01:00:00 14,7 14,0 14,1 15 8 18 10 ESE 1003,1 7 0,0
15.10.2019 00:00:00 15,7 14,6 14,8 9 5 25 14 S 1004,4 9 0,0
14.10.2019 23:00:00 14,8 14,0 14,1 11 6 29 16 SE 1004,9 9 0,0
14.10.2019 22:00:00 14,2 13,3 13,8 16 9 29 16 ESE 1005,0 10 0,0
14.10.2019 21:00:00 13,9 12,9 13,5 16 9 29 16 E 1005,7 10 0,0
14.10.2019 20:00:00 13,7 12,6 13,0 21 11 29 16 E 1006,6 10 0,0
14.10.2019 19:00:00 13,4 12,3 13,0 18 10 40 21 E 1007,2 10 0,0
14.10.2019 18:00:00 13,3 11,9 13,0 24 13 40 21 E 1007,3 10 0,0
14.10.2019 17:00:00 13,3 12,1 13,1 31 17 43 23 E 1008,5 10 1,0
14.10.2019 16:00:00 13,2 10,5 13,0 28 15 40 21 ENE 1009,1 10 0,2
14.10.2019 15:00:00 12,9 11,3 12,8 26 14 32 18 E 1010,3 5 1,0
14.10.2019 14:00:00 13,1 11,4 12,8 9 5 18 10 E 1011,7 10 0,6
14.10.2019 13:00:00 13,5 10,6 13,3 9 5 14 8 E 1012,7 10 0,0
14.10.2019 12:00:00 12,9 11,2 12,7 5 3 14 8 ESE 1013,2 10 0,0
14.10.2019 11:00:00 12,8 11,0 12,7 9 5 11 6 SE 1013,5 10 0,0
14.10.2019 10:00:00 12,8 11,0 12,7 4 2 7 4 SE 1013,0 10 0,0
14.10.2019 09:00:00 12,6 10,8 12,1 8 4 11 6 SSE 1012,6 10 0,0
14.10.2019 08:00:00 12,3 10,0 11,6 5 3 11 6 SW 1012,7 10 0,0
14.10.2019 07:00:00 13,0 9,7 12,0 8 4 14 8 WSW 1012,2 10 0,0
14.10.2019 06:00:00 13,1 10,0 12,4 11 6 22 12 W 1011,8 10 0,0
14.10.2019 05:00:00 13,2 9,5 12,5 15 8 25 14 W 1011,5 10 0,0
14.10.2019 04:00:00 13,4 9,6 12,6 21 11 32 18 W 1011,3 10 0,0
14.10.2019 03:00:00 13,5 9,3 12,8 22 12 43 23 W 1011,1 10 0,0
14.10.2019 02:00:00 13,6 9,9 12,7 26 14 43 23 W 1010,5 10 0,0
14.10.2019 01:00:00 14,1 9,7 13,2 29 16 50 27 WSW 1009,6 10 0,0
14.10.2019 00:00:00 14,8 11,2 13,9 31 17 58 31 WSW 1008,6 10 0,0
13.10.2019 23:00:00 15,5 12,2 14,7 34 18 54 29 WSW 1007,4 10 0,0
13.10.2019 22:00:00 15,5 13,1 14,9 34 18 47 25 SW 1006,3 10 0,0
13.10.2019 21:00:00 16,0 13,5 15,3 35 19 50 27 SW 1005,3 10 0,0
13.10.2019 20:00:00 16,4 14,2 15,8 29 16 58 31 SW 1004,5 10 0,0
13.10.2019 19:00:00 17,3 14,9 16,8 39 21 61 33 SW 1003,6 10 0,0
13.10.2019 18:00:00 17,5 15,6 16,9 31 17 58 31 SSW 1003,2 10 3,0
13.10.2019 17:00:00 17,4 15,6 16,8 18 10 40 21 WSW 1002,6 10 0,0
13.10.2019 16:00:00 18,3 16,6 17,9 21 11 40 21 S 1003,0 10 0,2
13.10.2019 15:00:00 18,5 16,6 18,3 21 11 32 18 S 1003,1 10 0,0
13.10.2019 14:00:00 18,0 16,2 18,0 26 14 36 19 S 1003,6 10 0,0
13.10.2019 13:00:00 17,1 15,9 17,0 21 11 32 18 S 1004,1 10 0,0
13.10.2019 12:00:00 16,5 15,4 16,5 15 8 25 14 S 1005,0 9 0,0
13.10.2019 11:00:00 15,4 15,0 15,2 18 10 29 16 S 1005,3 4,6 0,0
13.10.2019 10:00:00 13,6 13,6 13,8 15 8 25 14 SSE 1005,8 2,2 0,1
13.10.2019 09:00:00 12,3 12,3 12,3 13 7 18 10 SE 1006,0 0,3 0,0
13.10.2019 08:00:00 11,9 11,9 11,9 15 8 22 12 ESE 1006,3 0,7 0,0
13.10.2019 07:00:00 11,7 11,5 11,5 18 10 29 16 E 1007,1 6 0,0
13.10.2019 06:00:00 11,7 11,4 11,5 16 9 25 14 E 1007,4 10 0,0
13.10.2019 05:00:00 11,5 11,1 11,4 15 8 25 14 E 1007,7 6 0,0
13.10.2019 04:00:00 11,4 11,1 11,3 13 7 22 12 ESE 1008,2 9 0,3
13.10.2019 03:00:00 11,3 11,2 11,2 15 8 18 10 SE 1008,9 6 0,3
13.10.2019 02:00:00 11,2 11,0 11,1 9 5 18 10 SE 1009,1 7 0,6
13.10.2019 01:00:00 11,3 10,9 11,2 8 4 14 8 SSE 1009,8 5 0,6
13.10.2019 00:00:00 11,4 11,1 11,2 11 6 18 10 S 1009,9 3,9 0,7
12.10.2019 23:00:00 11,6 11,4 11,5 11 6 18 10 S 1009,9 3,7 1,0
12.10.2019 22:00:00 11,7 11,5 11,7 9 5 14 8 S 1009,7 3,8 0,4
12.10.2019 21:00:00 11,9 11,5 11,7 11 6 14 8 S 1009,3 6 0,4

tt = Température de l'air
td = dewpoint
tt 5cm = Température de l'air 5cm
ff = Vitesse du vent
fx = gusts
dd = Direction du vent
ppp = reduced air pressure
vv = visibility
rr = Quantités de précipitations

stations d'obs. à proximité